When you browse on this site, cookies collect data to enhance your experience and personalize the content and advertising you see.
Visit our Privacy Policy to learn more. By continuing to use the site, you agree to this use of cookies and data.
  • In United Kingdom
  • List of Countries
  • For 7 days
  • Water Temperature
  • Weather Map
  • Weather Widgets
  • user-avatar
    Login

    Hourly Weather Bujumbura

    Today, 20 February, Thursday

    Time Temperature Precipitation Wind Pressure Humidity
    00:00 +24°C° 0 mm 1 mps 692 mmHg 85%
    01:00 +24°C° 0 mm 1 mps 692 mmHg 85%
    02:00 +23°C° 0 mm 1 mps 692 mmHg 83%
    03:00 +23°C° 0.4 mm 1 mps 692 mmHg 85%
    04:00 +23°C° 0.4 mm 1 mps 692 mmHg 86%
    05:00 +23°C° 0.4 mm 1 mps 692 mmHg 88%
    06:00 +24°C° 0 mm 1 mps 692 mmHg 86%
    07:00 +25°C° 0 mm 1 mps 693 mmHg 83%
    08:00 +27°C° 0 mm 1 mps 694 mmHg 80%
    09:00 +28°C° 0.3 mm 1 mps 693 mmHg 75%
    10:00 +29°C° 0.3 mm 1 mps 693 mmHg 71%
    11:00 +31°C° 0.3 mm 1 mps 693 mmHg 66%
    12:00 +31°C° 0.6 mm 1 mps 692 mmHg 66%
    13:00 +31°C° 0.6 mm 2 mps 691 mmHg 65%
    14:00 +31°C° 0.6 mm 2 mps 690 mmHg 65%
    15:00 +31°C° 0.7 mm 2 mps 690 mmHg 70%
    16:00 +30°C° 0.7 mm 2 mps 690 mmHg 74%
    17:00 +29°C° 0.7 mm 2 mps 689 mmHg 79%
    18:00 +28°C° 0.5 mm 2 mps 690 mmHg 81%
    19:00 +26°C° 0.5 mm 2 mps 690 mmHg 84%
    20:00 +25°C° 0.5 mm 1 mps 691 mmHg 86%
    21:00 +25°C° 0.5 mm 1 mps 691 mmHg 86%
    22:00 +25°C° 0.5 mm 1 mps 691 mmHg 86%
    23:00 +24°C° 0.5 mm 1 mps 692 mmHg 86%

    Tomorrow, 21 February, Friday

    Time Temperature Precipitation Wind Pressure Humidity
    00:00 +24°C° 0.3 mm 1 mps 691 mmHg 86%
    01:00 +24°C° 0.3 mm 1 mps 691 mmHg 86%
    02:00 +24°C° 0.3 mm 1 mps 691 mmHg 87%
    03:00 +23°C° 0 mm 1 mps 691 mmHg 87%
    04:00 +23°C° 0 mm 1 mps 691 mmHg 87%
    05:00 +23°C° 0 mm 1 mps 691 mmHg 88%
    06:00 +24°C° 0 mm 1 mps 691 mmHg 86%
    07:00 +26°C° 0 mm 1 mps 692 mmHg 83%
    08:00 +27°C° 0 mm 1 mps 693 mmHg 81%
    15:00 +31°C° 0.8 mm 2 mps 690 mmHg 73%
    16:00 +30°C° 0.8 mm 2 mps 690 mmHg 77%
    17:00 +29°C° 0.8 mm 2 mps 690 mmHg 82%
    18:00 +28°C° 0.2 mm 2 mps 690 mmHg 82%
    19:00 +27°C° 0.2 mm 2 mps 691 mmHg 82%
    20:00 +26°C° 0.2 mm 1 mps 691 mmHg 83%
    21:00 +26°C° 0 mm 1 mps 691 mmHg 82%
    22:00 +25°C° 0 mm 1 mps 692 mmHg 82%
    23:00 +25°C° 0 mm 1 mps 692 mmHg 82%

    Day after tomorrow, 22 February, Saturday

    Time Temperature Precipitation Wind Pressure Humidity
    00:00 +25°C° 0 mm 1 mps 692 mmHg 82%
    01:00 +24°C° 0 mm 1 mps 691 mmHg 83%
    02:00 +24°C° 0 mm 1 mps 691 mmHg 83%
    03:00 +24°C° 0 mm 1 mps 691 mmHg 83%
    04:00 +24°C° 0 mm 1 mps 691 mmHg 84%
    05:00 +24°C° 0 mm 1 mps 691 mmHg 84%
    06:00 +25°C° 0 mm 1 mps 691 mmHg 82%
    07:00 +26°C° 0 mm 1 mps 692 mmHg 79%
    08:00 +28°C° 0 mm 1 mps 693 mmHg 77%
    09:00 +29°C° 0.1 mm 1 mps 693 mmHg 70%
    10:00 +31°C° 0.1 mm 1 mps 692 mmHg 64%
    11:00 +33°C° 0.1 mm 1 mps 692 mmHg 57%
    12:00 +33°C° 0.2 mm 1 mps 691 mmHg 58%
    13:00 +33°C° 0.2 mm 1 mps 691 mmHg 58%
    14:00 +33°C° 0.2 mm 1 mps 690 mmHg 59%
    15:00 +34°C° 0.4 mm 2 mps 690 mmHg 64%
    16:00 +32°C° 0.4 mm 2 mps 689 mmHg 68%
    17:00 +31°C° 0.4 mm 2 mps 689 mmHg 73%
    18:00 +29°C° 0.3 mm 2 mps 690 mmHg 77%
    19:00 +28°C° 0.3 mm 1 mps 690 mmHg 80%
    20:00 +26°C° 0.3 mm 1 mps 691 mmHg 83%
    21:00 +26°C° 0.4 mm 1 mps 691 mmHg 84%
    22:00 +25°C° 0.4 mm 1 mps 691 mmHg 85%
    23:00 +25°C° 0.4 mm 1 mps 692 mmHg 86%

    23 February, Sunday

    Time Temperature Precipitation Wind Pressure Humidity
    00:00 +25°C° 0.5 mm 1 mps 691 mmHg 86%
    01:00 +25°C° 0.5 mm 1 mps 691 mmHg 86%
    02:00 +25°C° 0.5 mm 1 mps 691 mmHg 86%
    03:00 +24°C° 0.1 mm 1 mps 691 mmHg 87%
    04:00 +24°C° 0.1 mm 1 mps 691 mmHg 87%
    05:00 +24°C° 0.1 mm 1 mps 691 mmHg 88%
    06:00 +25°C° 0 mm 1 mps 691 mmHg 86%
    07:00 +26°C° 0 mm 1 mps 692 mmHg 85%
    08:00 +27°C° 0 mm 1 mps 692 mmHg 84%
    09:00 +28°C° 0.4 mm 1 mps 692 mmHg 79%
    10:00 +30°C° 0.4 mm 1 mps 692 mmHg 75%
    11:00 +31°C° 0.4 mm 1 mps 692 mmHg 70%
    12:00 +31°C° 0.5 mm 1 mps 691 mmHg 71%
    13:00 +31°C° 0.5 mm 2 mps 691 mmHg 72%
    14:00 +31°C° 0.5 mm 3 mps 690 mmHg 73%
    15:00 +30°C° 0.7 mm 3 mps 690 mmHg 76%
    16:00 +29°C° 0.7 mm 3 mps 690 mmHg 79%
    17:00 +29°C° 0.7 mm 3 mps 690 mmHg 83%
    18:00 +28°C° 0.3 mm 3 mps 690 mmHg 84%
    19:00 +27°C° 0.3 mm 2 mps 690 mmHg 85%
    20:00 +26°C° 0.3 mm 2 mps 691 mmHg 86%
    21:00 +26°C° 0.1 mm 2 mps 691 mmHg 86%
    22:00 +25°C° 0.1 mm 1 mps 691 mmHg 87%
    23:00 +25°C° 0.1 mm 1 mps 692 mmHg 87%

    24 February, Monday

    Time Temperature Precipitation Wind Pressure Humidity
    00:00 +25°C° 0.3 mm 1 mps 691 mmHg 88%
    01:00 +25°C° 0.3 mm 1 mps 691 mmHg 88%
    02:00 +24°C° 0.3 mm 1 mps 691 mmHg 88%
    03:00 +24°C° 0.2 mm 1 mps 691 mmHg 89%
    04:00 +24°C° 0.2 mm 1 mps 691 mmHg 89%
    05:00 +22°C° 0.2 mm 0 mps 691 mmHg 89%
    06:00 +25°C° 0.1 mm 1 mps 691 mmHg 88%
    07:00 +26°C° 0.1 mm 1 mps 692 mmHg 87%
    08:00 +26°C° 0.1 mm 1 mps 692 mmHg 87%
    09:00 +27°C° 0.5 mm 1 mps 692 mmHg 83%
    10:00 +29°C° 0.5 mm 1 mps 692 mmHg 79%
    11:00 +30°C° 0.5 mm 1 mps 692 mmHg 75%
    12:00 +30°C° 0.8 mm 1 mps 692 mmHg 75%
    13:00 +30°C° 0.8 mm 1 mps 691 mmHg 75%
    14:00 +30°C° 0.8 mm 1 mps 690 mmHg 76%
    15:00 +29°C° 0.6 mm 1 mps 690 mmHg 79%
    16:00 +28°C° 0.6 mm 1 mps 690 mmHg 82%
    17:00 +28°C° 0.6 mm 1 mps 690 mmHg 85%
    18:00 +27°C° 0.4 mm 1 mps 690 mmHg 85%
    19:00 +26°C° 0.4 mm 2 mps 691 mmHg 86%
    20:00 +26°C° 0.4 mm 2 mps 691 mmHg 86%
    21:00 +25°C° 0.2 mm 1 mps 692 mmHg 87%
    22:00 +25°C° 0.2 mm 1 mps 692 mmHg 87%
    23:00 +25°C° 0.2 mm 1 mps 692 mmHg 87%

    25 February, Tuesday

    Time Temperature Precipitation Wind Pressure Humidity
    00:00 +25°C° 0.3 mm 1 mps 692 mmHg 88%
    01:00 +24°C° 0.3 mm 1 mps 692 mmHg 89%
    02:00 +24°C° 0.3 mm 1 mps 691 mmHg 91%
    03:00 +24°C° 0.5 mm 1 mps 691 mmHg 92%
    04:00 +24°C° 0.5 mm 1 mps 691 mmHg 93%
    05:00 +24°C° 0.5 mm 1 mps 692 mmHg 94%
    06:00 +24°C° 0.2 mm 1 mps 692 mmHg 93%
    07:00 +25°C° 0.2 mm 2 mps 693 mmHg 92%
    08:00 +25°C° 0.2 mm 2 mps 693 mmHg 91%
    09:00 +26°C° 0.3 mm 2 mps 693 mmHg 88%
    10:00 +27°C° 0.3 mm 2 mps 693 mmHg 85%
    11:00 +28°C° 0.3 mm 2 mps 692 mmHg 82%
    12:00 +28°C° 0.5 mm 3 mps 692 mmHg 83%
    13:00 +28°C° 0.5 mm 3 mps 691 mmHg 84%
    14:00 +28°C° 0.5 mm 3 mps 691 mmHg 85%
    15:00 +27°C° 0.8 mm 3 mps 691 mmHg 87%
    16:00 +27°C° 0.8 mm 3 mps 691 mmHg 89%
    17:00 +26°C° 0.8 mm 4 mps 691 mmHg 91%
    18:00 +26°C° 0.9 mm 3 mps 691 mmHg 92%
    19:00 +25°C° 0.9 mm 3 mps 692 mmHg 93%
    20:00 +25°C° 0.9 mm 3 mps 692 mmHg 93%
    21:00 +25°C° 0.8 mm 3 mps 693 mmHg 94%
    22:00 +24°C° 0.8 mm 3 mps 693 mmHg 95%
    23:00 +24°C° 0.8 mm 2 mps 693 mmHg 96%
    Show more